Weather History for St. Joseph, MO

Change the Weather History Date:

Sunday, May 19, 2013

  Actual Average Record
Temperature  
Mean Temperature 73 °F 66 °F  
Max Temperature 84 °F 77 °F 97 °F (1998)
Min Temperature 61 °F 54 °F 39 °F (1968)
Degree Days  
Heating Degree Days 0 3  
Month to date heating degree days 151 92  
Since 1 July heating degree days 5584 5430  
Cooling Degree Days 8 3  
Month to date cooling degree days 47 37  
Year to date cooling degree days 63 58  
Growing Degree Days 21 (Base 50)    
Moisture  
Dew Point 62 °F    
Average Humidity 69    
Maximum Humidity 87    
Minimum Humidity 51    
Precipitation  
Precipitation 0.45 in 0.18 in 5.88 in (1962)
Month to date precipitation 1.89 3.36  
Year to date precipitation 8.40 10.89  
Sea Level Pressure  
Sea Level Pressure 29.67 in    
Wind  
Wind Speed 11 mph (South)    
Max Wind Speed 47 mph    
Max Gust Speed 59 mph    
Visibility 8 miles    
Events Rain , Thunderstorm    
T = Trace of Precipitation, MM = Missing Value Source: NWS Daily Summary

Daily Weather History Graph

Daily Weather History Graph

Search for Another Location

Airport:

Trip Planner

Search our weather history database for the weather conditions in past years. The results will help you decide how hot, cold, wet, or windy it might be!

Date:

Astronomy

May. 19, 2013 Rise Set
Actual Time 6:01 AM CDT 8:31 PM CDT
Civil Twilight 5:30 AM CDT 9:02 PM CDT
Nautical Twilight 4:52 AM CDT 9:40 PM CDT
Astronomical Twilight 4:09 AM CDT 10:23 PM CDT
Moon 2:37 PM CDT (5/19) 2:24 AM CDT (5/19)
Length of Visible Light 15h 32m
Length of Day
14h 30m
Waxing Gibbous, 65% of the Moon is Illuminated
May 19
Waxing Gibbous
May 24
Full
May 31
Last Quarter
Jun 8
New
Jun 16
First Quarter

Hourly Weather History & Observations

Time (CDT) Temp. Heat Index Dew Point Humidity Pressure Visibility Wind Dir Wind Speed Gust Speed Precip Events Conditions
12:45 AM 78.8 °F - 68.0 °F 69% 29.83 in 6.0 mi WSW 36.8 mph 59.8 mph N/A Thunderstorm Haze
12:53 AM 66.9 °F - 59.0 °F 76% 29.83 in 3.0 mi West 20.7 mph 59.8 mph 0.03 in Rain , Thunderstorm Thunderstorms and Rain
1:04 AM 64.4 °F - 59.0 °F 83% 29.85 in 3.0 mi WNW 18.4 mph 31.1 mph 0.06 in Rain , Thunderstorm Thunderstorms and Rain
1:40 AM 64.4 °F - 59.0 °F 83% 29.83 in 10.0 mi Calm Calm - 0.09 in Rain Light Rain
1:53 AM 64.9 °F - 57.9 °F 78% 29.79 in 10.0 mi Calm Calm - 0.09 in   Mostly Cloudy
2:53 AM 64.0 °F - 61.0 °F 90% 29.74 in 10.0 mi SSE 4.6 mph - 0.01 in   Mostly Cloudy
3:53 AM 64.0 °F - 60.1 °F 87% 29.72 in 10.0 mi ESE 12.7 mph - N/A   Partly Cloudy
5:53 AM 64.0 °F - 59.0 °F 84% 29.69 in 10.0 mi ESE 6.9 mph - N/A   Clear
7:53 AM 66.9 °F - 61.0 °F 81% 29.75 in 10.0 mi South 19.6 mph 27.6 mph 0.00 in Rain Light Rain
8:53 AM 66.9 °F - 61.0 °F 81% 29.62 in 10.0 mi ESE 19.6 mph 27.6 mph 0.01 in   Mostly Cloudy
9:53 AM 71.1 °F - 61.0 °F 70% 29.65 in 10.0 mi South 12.7 mph - 0.01 in   Clear
10:53 AM 75.0 °F - 61.0 °F 62% 29.65 in 10.0 mi SSE 15.0 mph - N/A   Clear
11:53 AM 81.0 °F 81.7 °F 61.0 °F 50% 29.66 in 10.0 mi South 17.3 mph 25.3 mph N/A   Clear
12:53 PM 82.9 °F 84.0 °F 63.0 °F 51% 29.65 in 10.0 mi South 18.4 mph 29.9 mph N/A   Scattered Clouds
2:53 PM 80.1 °F 81.9 °F 64.9 °F 60% 29.64 in 10.0 mi South 16.1 mph - N/A   Overcast
3:53 PM 82.0 °F 83.8 °F 64.9 °F 56% 29.60 in 10.0 mi South 10.4 mph 19.6 mph N/A   Scattered Clouds
4:53 PM 82.0 °F 83.8 °F 64.9 °F 56% 29.57 in 10.0 mi South 12.7 mph 23.0 mph N/A   Scattered Clouds
5:53 PM 80.1 °F 82.1 °F 66.0 °F 62% 29.54 in 9.0 mi South 13.8 mph - N/A   Clear
6:53 PM 78.1 °F - 68.0 °F 71% 29.57 in 8.0 mi South 6.9 mph - 0.00 in Rain Light Rain
7:08 PM 77.0 °F - 69.8 °F 78% 29.59 in 5.0 mi SW 3.5 mph - 0.00 in Rain , Thunderstorm Light Rain
7:34 PM 66.2 °F - 60.8 °F 83% 29.65 in 1.8 mi SW 42.6 mph 58.7 mph 0.14 in Rain , Thunderstorm Heavy Thunderstorms and Rain
7:43 PM 60.8 °F - 59.0 °F 94% 29.65 in - SSW 21.9 mph 40.3 mph 0.28 in Rain , Thunderstorm Heavy Thunderstorms and Rain
7:53 PM 64.0 °F - 57.9 °F 80% 29.61 in 5.0 mi SW 13.8 mph 26.5 mph 0.33 in Rain , Thunderstorm Thunderstorms and Rain
8:24 PM 64.4 °F - 59.0 °F 83% 29.57 in 10.0 mi South 12.7 mph 24.2 mph 0.06 in Rain Light Rain
8:53 PM 64.9 °F - 59.0 °F 81% 29.56 in 10.0 mi SW 8.1 mph - 0.06 in   Scattered Clouds
9:53 PM 64.0 °F - 59.0 °F 84% 29.57 in 10.0 mi South 10.4 mph - N/A   Clear
11:53 PM 62.1 °F - 57.9 °F 86% 29.60 in 10.0 mi SSE 8.1 mph - N/A   Clear